HP1PAR-14 Weather Reports


time (UTC)temp
C
wind
direction
speed
KPH
gust
KPH
rain 1hr
cm
rain 24hr
cm
rain mn
cm
humidity
%
barometer
mb
20260831091813 20 210 3.2 9.7 0.00 0.00 0.00 99 1010.7
20260831084813 20 236 3.2 11.3 0.03 0.00 0.00 97 1010.6
20260831081812 20 220 1.6 16.1 0.03 0.00 0.00 93 1010.9
20260831074812 20 270 1.6 19.3 0.00 0.00 0.00 93 1011.0
20260831071811 20 296 4.8 20.9 0.00 0.00 0.00 97 1010.8
20260831064811 20 283 1.6 11.3 0.00 0.00 0.00 99 1011.0
20260831061810 20 317 3.2 14.5 0.00 0.00 0.00 99 1012.6
20260831054810 20 324 3.2 16.1 0.00 0.00 0.00 99 1012.9
20260831051809 20 315 3.2 16.1 0.00 0.00 0.00 99 1013.1
20260831044809 20 317 3.2 16.1 0.00 0.00 0.00 99 1013.1
20260831044012 20 320 4.8 16.1 0.00 0.00 0.00 100 1013.1
20260831043510 20 320 4.8 16.1 0.00 0.00 0.00 100 1013.1
20260831043435 20 320 4.8 16.1 0.00 0.00 0.00 100 1013.1
20260831043151 20 320 4.8 16.1 0.00 0.00 0.00 100 1013.1
20260831043048 20 320 4.8 16.1 0.00 0.00 0.00 100 1013.1
20260831042718 19 323 4.8 16.1 0.00 0.00 0.00 100 1013.0
20260831042555 19 323 4.8 16.1 0.00 0.00 0.00 100 1013.0
20260831041204 19 326 4.8 16.1 0.00 0.00 0.00 100 1013.0
20260831040409 19 326 4.8 16.1 0.00 0.00 0.00 100 1013.0
20260831035655 19 324 4.8 16.1 0.00 0.00 0.00 100 1013.0
20260831034511 19 324 4.8 16.1 0.00 0.00 0.00 100 1013.0
20260831031511 19 317 4.8 14.5 0.00 0.00 0.00 100 1013.2
20260831030756 19 313 4.8 14.5 0.00 0.00 0.00 100 1013.2
20260831030457 19 313 4.8 14.5 0.00 0.00 0.00 100 1013.2
20260831025550 19 304 3.2 14.5 0.00 0.00 0.00 100 1013.2
20260831025358 19 304 3.2 14.5 0.00 0.00 0.00 100 1013.2
20260831024951 19 304 3.2 14.5 0.00 0.00 0.00 100 1013.2
20260831023851 19 288 3.2 16.1 0.00 0.00 0.00 100 1013.1
20260831020850 20 266 3.2 16.1 0.00 0.00 0.00 100 1012.9
20260831020204 20 266 3.2 16.1 0.00 0.00 0.00 100 1012.9
20260831013203 20 6 1.6 19.3 0.00 0.00 0.00 99 1012.4
20260831011630 20 27 3.2 20.9 0.00 0.00 0.00 99 1012.2
20260831011052 20 28 4.8 20.9 0.00 0.00 0.00 98 1011.9
20260831010042 20 28 4.8 20.9 0.00 0.00 0.00 98 1011.9
20260831004712 20 24 4.8 20.9 0.00 0.00 0.00 98 1011.7
20260831003704 20 14 4.8 20.9 0.00 0.00 0.00 98 1011.4
20260831002230 20 2 4.8 20.9 0.00 0.00 0.00 98 1011.2
20260831001339 21 360 9.7 27.4 0.00 0.00 0.00 92 1011.0
20260831000641 21 360 9.7 27.4 0.00 0.00 0.00 92 1011.2
20260831000041 21 360 9.7 27.4 0.00 0.00 0.00 92 1011.2
20260830235534 21 358 9.7 27.4 0.00 0.00 0.00 91 1011.0
20260830234731 21 358 9.7 27.4 0.00 0.00 0.00 91 1011.0
20260830233408 21 355 8.0 27.4 0.00 0.00 0.00 91 1010.8
20260830231731 21 354 8.0 27.4 0.00 0.00 0.00 90 1010.6
20260830231539 21 354 8.0 27.4 0.00 0.00 0.00 90 1010.6
20260830224539 21 352 8.0 29.0 0.00 0.00 0.00 88 1010.1
20260830221538 22 354 9.7 30.6 0.00 0.00 0.00 86 1009.6
20260830214538 22 355 9.7 30.6 0.00 0.00 0.00 83 1009.3
20260830211537 23 356 11.3 30.6 0.00 0.00 0.00 82 1009.2
20260830204537 23 357 11.3 30.6 0.00 0.00 0.00 82 1009.3
20260830201536 23 358 9.7 30.6 0.00 0.00 0.00 83 1009.6
20260830194536 23 1 9.7 30.6 0.00 0.00 0.00 82 1009.8
20260830191535 23 358 9.7 33.8 0.00 0.00 0.00 82 1010.5
20260830184535 23 359 9.7 32.2 0.00 0.00 0.00 80 1011.1
20260830181534 23 7 6.4 27.4 0.00 0.00 0.00 84 1011.9
20260830180940 23 14 4.8 27.4 0.00 0.00 0.00 83 1012.3
20260830174944 23 25 4.8 27.4 0.00 0.00 0.00 81 1012.6
20260830171944 24 44 6.4 30.6 0.00 0.00 0.00 75 1012.9
20260830164943 24 43 8.0 33.8 0.00 0.00 0.00 73 1013.1
20260830161943 23 33 9.7 37.0 0.00 0.00 0.00 76 1013.1
20260830154942 23 29 11.3 38.6 0.00 0.00 0.00 80 1012.9
20260830151942 22 29 12.9 38.6 0.00 0.00 0.00 83 1012.6
20260830144941 22 25 12.9 37.0 0.00 0.00 0.00 86 1012.4
20260830144719 22 25 12.9 37.0 0.00 0.00 0.00 86 1012.4
20260830142456 21 15 11.3 33.8 0.00 0.00 0.00 90 1012.3
20260830141314 21 14 9.7 32.2 0.00 0.00 0.00 92 1012.3
20260830134314 20 30 6.4 30.6 0.00 0.00 0.00 93 1012.5
20260830131313 20 65 4.8 30.6 0.00 0.00 0.00 93 1012.6
20260830124313 20 59 6.4 30.6 0.00 0.00 0.00 95 1012.2
20260830121312 19 45 6.4 27.4 0.00 0.00 0.00 99 1011.8
20260830114312 19 46 6.4 27.4 0.00 0.00 0.00 99 1011.5
20260830111311 18 44 4.8 27.4 0.00 0.00 0.00 99 1011.2
20260830104311 18 28 6.4 32.2 0.00 0.00 0.00 99 1010.9
20260830101310 19 20 8.0 35.4 0.03 0.00 0.00 99 1010.6
20260830094310 19 28 8.0 30.6 0.03 0.00 0.00 98 1010.6